Location: Courçay
(47.2523°N, 0.8761°E)
Time: 23:33:50
(UTC+00:00)

Cosmos 1140 Rocket - Pass Details

Date: 18 November 2025
Orbit: 740 x 761 km, 74.1° (Epoch: 05 December)

Event Time Altitude Azimuth Distance (km) Brightness Sun altitude
Rises 16:51:06 0° 198° (SSW) 3,197 7.4 -5.9°
Reaches altitude 10° 16:53:27 10° 198° (SSW) 2,273 6.6 -6.3°
Maximum altitude 16:58:37 85° 111° (ESE) 760 3.5 -7.1°
Drops below altitude 10° 17:03:47 10° 23° (NNE) 2,276 5.6 -7.9°
Sets 17:06:09 0° 23° (NNE) 3,201 6.3 -8.3°
